Find Starlink 6051

NORAD ID: 56463 Int'l Des: 2023-064 Owner: SPXS Country: US Constellation: starlink operational
LEOCIRCULAR

リアルタイム位置

3D地球を読み込み中...

Starlink 6051について

説明を読み込み中...

次回通過

Passes for default location (London). Set your location on the main map for personalized predictions.

高度履歴

Loading altitude history...

軌道要素

1 56463U 23064R 26125.76905873 .00000841 00000-0 78230-4 0 9997
2 56463 69.9989 0.6285 0002625 262.4270 97.6591 14.98342700163796
Epoch: May 5, 2026 • Age: 14 hours

現在のステータス

高度 583.1 km
速度 7.57 km/s
衛星直下点 -34.22°S, 154.35°W
打ち上げ日 May 10, 2023
運用期間 2.9 years
タイプ internet

技術仕様

分類 Payload
質量 305.00 kg
乾燥質量 290.00 kg
総質量 305.00 kg
長さ 0.20 m
直径 2.80 m
スパン 9.00 m
形状 Box + pan
製造者 SPXS
バスタイプ Starlink
フェーズステータス In Orbit
所有者/国 SPXS/US

Most Searched